DW0937 Weather Reports


Display with metric or nautical units.
time (UTC)temp
F
wind
direction
speed
MPH
gust
MPH
rain 1hr
in
rain 24hr
in
rain mn
in
humidity
%
barometer
mb
20260509182356 60 355 3.0 13.0 0.00 0.00 0.00 30 1007.7
20260509181858 61 317 2.0 8.0 0.00 0.00 0.00 35 1007.6
20260509181357 60 289 2.0 8.0 0.00 0.00 0.00 35 1007.6
20260509180856 59 333 3.0 12.0 0.00 0.00 0.00 36 1007.5
20260509180844 60 309 3.0 12.0 0.00 0.00 0.00 36 1007.5
20260509180123 60 309 2.0 10.0 0.00 0.00 0.00 36 1007.5
20260509175626 60 355 2.0 10.0 0.00 0.00 0.00 36 1007.5
20260509174857 60 27 2.0 12.0 0.00 0.00 0.00 37 1007.5
20260509174356 59 314 3.0 12.0 0.00 0.00 0.00 38 1007.5
20260509173857 59 325 4.0 14.0 0.00 0.00 0.00 37 1007.6
20260509173615 60 325 3.0 14.0 0.00 0.00 0.00 38 1007.5
20260509173119 60 328 2.0 12.0 0.00 0.00 0.00 38 1007.3
20260509172353 59 328 2.0 7.0 0.00 0.00 0.00 38 1007.3
20260509172113 59 333 3.0 12.0 0.00 0.00 0.00 38 1007.3
20260509171349 59 340 3.0 12.0 0.00 0.00 0.00 38 1007.3
20260509170849 59 26 3.0 11.0 0.00 0.00 0.00 38 1007.1
20260509170608 58 315 4.0 13.0 0.00 0.00 0.00 37 1007.2
20260509165848 58 355 4.0 13.0 0.00 0.00 0.00 38 1007.1
20260509165346 58 326 3.0 13.0 0.00 0.00 0.00 39 1007.0
20260509164844 59 347 2.0 10.0 0.00 0.00 0.00 39 1006.9
20260509164605 59 0 3.0 11.0 0.00 0.00 0.00 40 1007.0
20260509164103 58 5 4.0 11.0 0.00 0.00 0.00 40 1006.9
20260509163343 58 0 3.0 13.0 0.00 0.00 0.00 39 1006.7
20260509162843 58 319 4.0 13.0 0.00 0.00 0.00 39 1006.7
20260509162342 58 355 3.0 10.0 0.00 0.00 0.00 40 1006.6
20260509162058 58 319 3.0 12.0 0.00 0.00 0.00 40 1006.7
20260509161340 58 306 3.0 12.0 0.00 0.00 0.00 40 1006.6
20260509160841 58 355 3.0 11.0 0.00 0.00 0.00 40 1006.6
20260509160338 58 331 2.0 11.0 0.00 0.00 0.00 40 1006.5
20260509155836 58 308 2.0 10.0 0.00 0.00 0.00 41 1006.4
20260509155331 58 294 4.0 10.0 0.00 0.00 0.00 42 1006.4
20260509154830 57 309 5.0 15.0 0.00 0.00 0.00 42 1006.4
20260509154330 57 320 5.0 15.0 0.00 0.00 0.00 41 1006.2
20260509153829 58 338 2.0 11.0 0.00 0.00 0.00 42 1006.2
20260509153331 58 331 1.0 7.0 0.00 0.00 0.00 42 1006.1
20260509153050 58 314 1.0 11.0 0.00 0.00 0.00 44 1006.0
20260509152331 57 268 2.0 11.0 0.00 0.00 0.00 46 1005.9
20260509152312 56 355 2.0 11.0 0.00 0.00 0.00 46 1005.9
20260509151330 56 315 3.0 11.0 0.00 0.00 0.00 47 1005.8
20260509150830 56 0 2.0 13.0 0.00 0.00 0.00 50 1005.8
20260509150330 56 5 2.0 13.0 0.00 0.00 0.00 48 1005.7
20260509145830 56 329 2.0 8.0 0.00 0.00 0.00 49 1005.6
20260509145332 56 350 2.0 8.0 0.00 0.00 0.00 51 1005.6
20260509144829 55 355 3.0 14.0 0.00 0.00 0.00 52 1005.5
20260509144323 55 344 3.0 14.0 0.00 0.00 0.00 51 1005.5
20260509143815 55 296 1.0 9.0 0.00 0.00 0.00 52 1005.4
20260509143314 55 292 1.0 7.0 0.00 0.00 0.00 57 1005.4
20260509142813 54 337 2.0 15.0 0.00 0.00 0.00 57 1005.4
20260509142315 54 290 4.0 15.0 0.00 0.00 0.00 59 1005.3
20260509141814 53 316 3.0 15.0 0.00 0.00 0.00 58 1005.3
20260509141315 53 311 2.0 10.0 0.00 0.00 0.00 62 1005.2
20260509140815 53 328 2.0 13.0 0.00 0.00 0.00 62 1005.1
20260509140315 53 317 3.0 13.0 0.00 0.00 0.00 62 1005.0
20260509135815 54 306 4.0 11.0 0.00 0.00 0.00 63 1005.0
20260509135315 54 314 3.0 12.0 0.00 0.00 0.00 64 1004.8
20260509134814 54 348 2.0 12.0 0.00 0.00 0.00 66 1004.8
20260509134312 53 5 2.0 7.0 0.00 0.00 0.00 68 1004.8
20260509133812 52 301 2.0 10.0 0.00 0.00 0.00 70 1004.7
20260509133311 52 307 2.0 10.0 0.00 0.00 0.00 73 1004.6
20260509132812 51 0 3.0 9.0 0.00 0.00 0.00 73 1004.6
20260509132312 52 21 3.0 9.0 0.00 0.00 0.00 72 1004.5
20260509131813 52 348 1.0 7.0 0.00 0.00 0.00 72 1004.4
20260509131311 51 5 2.0 12.0 0.00 0.00 0.00 73 1004.4
20260509130812 51 332 3.0 12.0 0.00 0.00 0.00 72 1004.3
20260509130312 51 331 2.0 10.0 0.00 0.00 0.00 72 1004.0
20260509125813 51 316 3.0 13.0 0.00 0.00 0.00 73 1004.0
20260509125311 51 20 4.0 13.0 0.00 0.00 0.00 73 1003.9
20260509124814 51 327 4.0 11.0 0.00 0.00 0.00 74 1003.9
20260509124312 51 325 3.0 14.0 0.00 0.00 0.00 77 1003.8
20260509123812 51 319 2.0 14.0 0.00 0.00 0.00 78 1003.7
20260509123311 51 326 2.0 14.0 0.00 0.00 0.00 78 1003.6
20260509122812 51 309 2.0 8.0 0.00 0.00 0.00 78 1003.6
20260509122312 51 313 3.0 9.0 0.00 0.00 0.00 78 1003.5
20260509121813 51 318 4.0 9.0 0.00 0.00 0.00 77 1003.4
20260509121311 51 327 3.0 8.0 0.00 0.00 0.00 77 1003.3
20260509120812 51 333 2.0 8.0 0.00 0.00 0.00 78 1003.2
20260509120535 51 344 2.0 12.0 0.00 0.00 0.00 78 1003.2
20260509115811 51 327 2.0 12.0 0.00 0.00 0.00 78 1003.1
20260509115312 52 324 1.0 10.0 0.00 0.00 0.00 78 1003.0
20260509114813 52 310 1.0 9.0 0.00 0.00 0.00 77 1002.9
20260509114311 52 338 1.0 6.0 0.00 0.00 0.00 77 1002.9
20260509113813 52 314 1.0 6.0 0.00 0.00 0.00 77 1002.8
20260509113311 52 322 0.0 5.0 0.00 0.00 0.00 77 1002.7
20260509112812 52 303 0.0 5.0 0.00 0.00 0.00 77 1002.5
20260509112312 51 337 0.0 5.0 0.00 0.00 0.00 77 1002.4
20260509111813 51 306 1.0 7.0 0.00 0.00 0.00 77 1002.3
20260509111312 51 319 1.0 7.0 0.00 0.00 0.00 76 1002.1
20260509110812 51 250 0.0 0.0 0.00 0.00 0.00 76 1001.9
20260509110311 51 192 0.0 0.0 0.00 0.00 0.00 75 1001.9
20260509105812 51 192 0.0 0.0 0.00 0.00 0.00 75 1001.8
20260509105311 51 192 0.0 0.0 0.00 0.00 0.00 74 1001.8
20260509105259 52 182 0.0 0.0 0.00 0.00 0.00 73 1001.8
20260509104313 52 343 0.0 2.0 0.00 0.00 0.00 72 1001.8
20260509103811 52 288 1.0 6.0 0.00 0.00 0.00 71 1001.7
20260509103310 53 219 0.0 6.0 0.00 0.00 0.00 70 1001.5
20260509103032 53 234 0.0 6.0 0.00 0.00 0.00 66 1001.9
20260509102310 53 304 0.0 6.0 0.00 0.00 0.00 64 1001.8
20260509101810 53 336 0.0 2.0 0.00 0.00 0.00 63 1001.6
20260509101311 53 325 0.0 0.0 0.00 0.00 0.00 62 1001.7
20260509100807 53 325 0.0 0.0 0.00 0.00 0.00 60 1001.5
20260509100307 53 342 0.0 1.0 0.00 0.00 0.00 58 1001.4
20260509100027 53 346 0.0 1.0 0.00 0.00 0.00 57 1001.4
20260509095305 53 340 0.0 1.0 0.00 0.00 0.00 57 1001.5
20260509095023 53 336 0.0 1.0 0.00 0.00 0.00 56 1001.7
20260509094300 53 334 0.0 5.0 0.00 0.00 0.00 55 1001.7
20260509093800 53 323 0.0 5.0 0.00 0.00 0.00 55 1002.0
20260509093259 53 333 0.0 4.0 0.00 0.00 0.00 54 1002.0
20260509092757 53 346 0.0 4.0 0.00 0.00 0.00 54 1002.0
20260509092258 53 340 0.0 5.0 0.00 0.00 0.00 54 1002.0
20260509091757 54 15 1.0 5.0 0.00 0.00 0.00 54 1001.9
20260509091259 54 355 1.0 7.0 0.00 0.00 0.00 53 1001.8
20260509090756 54 333 1.0 7.0 0.00 0.00 0.00 53 1001.8
20260509090253 54 314 1.0 6.0 0.00 0.00 0.00 52 1001.6
20260509085755 54 338 1.0 5.0 0.00 0.00 0.00 51 1001.7
20260509085253 54 313 1.0 5.0 0.00 0.00 0.00 50 1001.7
20260509084751 54 332 1.0 7.0 0.00 0.00 0.00 50 1001.7
20260509084246 54 326 1.0 7.0 0.00 0.00 0.00 49 1001.6
20260509084004 54 334 1.0 7.0 0.00 0.00 0.00 48 1001.6
20260509083244 53 337 0.0 7.0 0.00 0.00 0.00 48 1001.6
20260509082744 53 321 0.0 3.0 0.00 0.00 0.00 48 1001.5
20260509082243 53 324 0.0 3.0 0.00 0.00 0.00 48 1001.5
20260509081743 53 315 0.0 3.0 0.00 0.00 0.00 48 1001.5
20260509081244 53 321 0.0 1.0 0.00 0.00 0.00 48 1001.5
20260509080744 53 269 0.0 0.0 0.00 0.00 0.00 48 1001.0
20260509080243 53 268 0.0 0.0 0.00 0.00 0.00 48 1000.7
20260509075742 53 268 0.0 0.0 0.00 0.00 0.00 47 1000.9
20260509075241 53 268 0.0 0.0 0.00 0.00 0.00 47 1000.6
20260509074742 52 269 0.0 0.0 0.00 0.00 0.00 47 1000.6
20260509074506 52 269 0.0 0.0 0.00 0.00 0.00 46 1000.5
20260509074000 52 269 0.0 0.0 0.00 0.00 0.00 46 1000.5
20260509073236 52 269 0.0 0.0 0.00 0.00 0.00 46 1000.6
20260509072732 52 269 0.0 0.0 0.00 0.00 0.00 46 1000.7
20260509072231 52 269 0.0 0.0 0.00 0.00 0.00 46 1000.8
20260509071725 52 269 0.0 0.0 0.00 0.00 0.00 46 1000.9
20260509071447 52 269 0.0 0.0 0.00 0.00 0.00 45 1000.9
20260509070725 52 269 0.0 0.0 0.00 0.00 0.00 45 1000.9
20260509070225 52 269 0.0 0.0 0.00 0.00 0.00 45 1000.9
20260509065951 52 269 0.0 0.0 0.00 0.00 0.00 45 1000.9
20260509065223 52 269 0.0 0.0 0.00 0.00 0.00 44 1000.9
20260509064724 52 269 0.0 0.0 0.00 0.00 0.00 44 1000.9
20260509064221 52 269 0.0 0.0 0.00 0.00 0.00 45 1000.9
20260509063722 52 269 0.0 0.0 0.00 0.00 0.00 44 1001.0
20260509063223 53 269 0.0 0.0 0.00 0.00 0.00 43 1001.1
20260509062721 53 269 0.0 0.0 0.00 0.00 0.00 42 1001.1
20260509062442 53 269 0.0 0.0 0.00 0.00 0.00 43 1001.1
20260509061719 53 269 0.0 0.0 0.00 0.00 0.00 43 1001.0
20260509061220 53 269 0.0 0.0 0.00 0.00 0.00 43 1001.1
20260509060719 53 269 0.0 0.0 0.00 0.00 0.00 42 1001.1
20260509060218 53 269 0.0 0.0 0.00 0.00 0.00 42 1001.2
20260509055718 53 269 0.0 0.0 0.00 0.00 0.00 41 1001.1
20260509055217 54 269 0.0 0.0 0.00 0.00 0.00 41 1001.4
20260509054718 54 269 0.0 0.0 0.00 0.00 0.00 41 1001.5
20260509054215 54 269 0.0 0.0 0.00 0.00 0.00 40 1001.6
20260509053713 54 269 0.0 0.0 0.00 0.00 0.00 39 1001.6
20260509053213 55 355 0.0 0.0 0.00 0.00 0.00 39 1001.5
20260509052714 55 355 0.0 0.0 0.00 0.00 0.00 38 1001.7
20260509052212 56 355 0.0 0.0 0.00 0.00 0.00 37 1001.6
20260509051933 56 355 0.0 0.0 0.00 0.00 0.00 37 1001.6
20260509051211 56 355 0.0 0.0 0.00 0.00 0.00 36 1001.7
20260509050711 56 355 0.0 0.0 0.00 0.00 0.00 36 1001.8
20260509050212 57 355 0.0 0.0 0.00 0.00 0.00 35 1001.8
20260509045712 57 355 0.0 0.0 0.00 0.00 0.00 35 1001.9
20260509045211 57 355 0.0 0.0 0.00 0.00 0.00 35 1001.9
20260509044711 58 355 0.0 1.0 0.00 0.00 0.00 34 1002.0
20260509044213 58 313 0.0 1.0 0.00 0.00 0.00 34 1001.9
20260509043709 58 318 0.0 0.0 0.00 0.00 0.00 34 1002.0
20260509043208 58 321 0.0 2.0 0.00 0.00 0.00 33 1002.1
20260509042922 58 311 0.0 2.0 0.00 0.00 0.00 33 1002.0
20260509042203 59 317 0.0 2.0 0.00 0.00 0.00 33 1002.1
20260509041705 59 307 0.0 5.0 0.00 0.00 0.00 33 1002.2
20260509041206 59 302 0.0 5.0 0.00 0.00 0.00 33 1002.1
20260509041155 59 0 0.0 1.0 0.00 0.00 0.00 33 1002.1
20260509040202 60 311 0.0 1.0 0.00 0.00 0.00 33 1002.0
20260509035701 60 314 0.0 3.0 0.00 0.00 0.00 33 1002.1
20260509035425 60 301 0.0 5.0 0.00 0.00 0.00 32 1002.0
20260509034700 60 336 0.0 6.0 0.00 0.00 0.00 32 1002.0
20260509034430 60 299 0.0 6.0 0.00 0.00 0.00 32 1002.1
20260509033701 60 308 1.0 5.0 0.00 0.00 0.00 32 1002.1
20260509033201 61 312 1.0 5.0 0.00 0.00 0.00 31 1002.0
20260509032702 61 314 0.0 3.0 0.00 0.00 0.00 32 1002.0
20260509032416 61 310 0.0 4.0 0.00 0.00 0.00 33 1002.0
20260509031657 61 13 0.0 6.0 0.00 0.00 0.00 32 1002.0
20260509031155 62 329 1.0 6.0 0.00 0.00 0.00 32 1001.8
20260509030654 62 317 1.0 6.0 0.00 0.00 0.00 31 1001.8
20260509030155 62 288 2.0 10.0 0.00 0.00 0.00 31 1001.8
20260509025654 62 326 3.0 10.0 0.00 0.00 0.00 31 1001.7
20260509025153 63 308 4.0 13.0 0.00 0.00 0.00 31 1001.7
20260509024654 63 340 3.0 13.0 0.00 0.00 0.00 31 1001.6
20260509024153 64 5 2.0 11.0 0.00 0.00 0.00 31 1001.5
20260509023653 64 307 2.0 10.0 0.00 0.00 0.00 31 1001.5
20260509023152 64 317 1.0 5.0 0.00 0.00 0.00 31 1001.3
20260509022654 64 316 1.0 6.0 0.00 0.00 0.00 30 1001.2
20260509022153 65 324 2.0 8.0 0.00 0.00 0.00 30 1001.1
20260509021652 65 309 1.0 8.0 0.00 0.00 0.00 29 1001.0
20260509021635 65 316 2.0 8.0 0.00 0.00 0.00 29 1000.9
20260509020654 65 318 2.0 13.0 0.00 0.00 0.00 29 1000.8
20260509020154 65 265 1.0 13.0 0.00 0.00 0.00 28 1000.8
20260509015654 65 279 0.0 8.0 0.00 0.00 0.00 27 1000.6
20260509015152 65 255 0.0 2.0 0.00 0.00 0.00 28 1000.6
20260509014654 65 305 0.0 3.0 0.00 0.00 0.00 27 1000.5
20260509014153 66 225 0.0 5.0 0.00 0.00 0.00 27 1000.4
20260509013652 66 298 0.0 5.0 0.00 0.00 0.00 27 1000.4
20260509013154 66 288 0.0 1.0 0.00 0.00 0.00 26 1000.3
20260509012654 67 300 0.0 2.0 0.00 0.00 0.00 26 1000.3
20260509012153 67 350 0.0 5.0 0.00 0.00 0.00 25 1000.2
20260509011653 67 5 0.0 5.0 0.00 0.00 0.00 25 1000.2
20260509011153 67 306 1.0 8.0 0.00 0.00 0.00 25 1000.1
20260509010922 68 355 1.0 8.0 0.00 0.00 0.00 24 1000.1
20260509010417 68 319 1.0 9.0 0.00 0.00 0.00 25 1000.1
20260509005654 68 293 0.0 12.0 0.00 0.00 0.00 24 1000.1
20260509005153 68 303 1.0 12.0 0.00 0.00 0.00 24 1000.1
20260509004652 69 283 1.0 9.0 0.00 0.00 0.00 24 1000.0
20260509004152 69 286 2.0 9.0 0.00 0.00 0.00 24 1000.0
20260509003652 69 319 2.0 9.0 0.00 0.00 0.00 24 1000.0
20260509003151 69 275 1.0 6.0 0.00 0.00 0.00 25 1000.0
20260509002649 70 288 1.0 7.0 0.00 0.00 0.00 24 1000.0
20260509002147 70 355 2.0 9.0 0.00 0.00 0.00 24 1000.0
20260509001648 70 348 1.0 9.0 0.00 0.00 0.00 23 1000.0
20260509001147 71 296 1.0 7.0 0.00 0.00 0.00 24 1000.0
20260509000646 71 319 2.0 7.0 0.00 0.00 0.00 24 1000.0
20260509000356 71 307 2.0 9.0 0.00 0.00 0.00 24 1000.0
20260508235630 71 246 1.0 9.0 0.00 0.00 0.00 24 999.9
20260508235127 71 288 1.0 9.0 0.00 0.00 0.00 24 1000.0
20260508234626 71 311 2.0 11.0 0.00 0.00 0.00 24 1000.1
20260508234126 72 281 2.0 12.0 0.00 0.00 0.00 24 1000.0
20260508233626 72 303 3.0 12.0 0.00 0.00 0.00 24 1000.1
20260508233126 71 338 2.0 10.0 0.00 0.00 0.00 24 1000.0
20260508232845 71 288 1.0 7.0 0.00 0.00 0.00 24 1000.2
20260508232126 72 327 2.0 11.0 0.00 0.00 0.00 24 1000.2
20260508232110 72 311 2.0 11.0 0.00 0.00 0.00 24 1000.2
20260508231353 72 277 1.0 8.0 0.00 0.00 0.00 24 1000.3
20260508230628 71 288 0.0 2.0 0.00 0.00 0.00 25 1000.3
20260508230126 72 332 1.0 9.0 0.00 0.00 0.00 24 1000.2
20260508225627 72 289 1.0 9.0 0.00 0.00 0.00 24 1000.3
20260508225127 72 316 0.0 5.0 0.00 0.00 0.00 24 1000.3
20260508224627 72 274 1.0 6.0 0.00 0.00 0.00 25 1000.3
20260508224121 72 0 1.0 6.0 0.00 0.00 0.00 25 1000.3
20260508223841 72 311 1.0 6.0 0.00 0.00 0.00 24 1000.4
20260508223116 72 318 1.0 7.0 0.00 0.00 0.00 24 1000.5
20260508222617 73 259 1.0 12.0 0.00 0.00 0.00 23 1000.4
20260508222114 73 302 1.0 12.0 0.00 0.00 0.00 25 1000.4
20260508221615 72 218 0.0 4.0 0.00 0.00 0.00 25 1000.4
20260508221117 71 251 1.0 4.0 0.00 0.00 0.00 25 1000.5
20260508220614 72 340 1.0 5.0 0.00 0.00 0.00 23 1000.6
20260508220114 72 305 0.0 5.0 0.00 0.00 0.00 25 1000.6
20260508215614 72 311 1.0 9.0 0.00 0.00 0.00 24 1000.7
20260508215115 72 337 1.0 9.0 0.00 0.00 0.00 23 1000.8
20260508214614 73 250 1.0 6.0 0.00 0.00 0.00 24 1000.8
20260508214114 72 329 1.0 7.0 0.00 0.00 0.00 24 1000.8
20260508213617 72 5 1.0 7.0 0.00 0.00 0.00 23 1000.8
20260508213114 71 246 0.0 4.0 0.00 0.00 0.00 24 1000.9
20260508212612 71 308 1.0 8.0 0.00 0.00 0.00 23 1001.0
20260508212112 72 308 1.0 9.0 0.00 0.00 0.00 22 1001.1
20260508211610 72 314 1.0 9.0 0.00 0.00 0.00 23 1001.1
20260508211110 72 319 1.0 8.0 0.00 0.00 0.00 23 1001.2
20260508210610 71 0 1.0 8.0 0.00 0.00 0.00 22 1001.2
20260508210111 73 288 1.0 7.0 0.00 0.00 0.00 23 1001.3
20260508205610 73 252 1.0 8.0 0.00 0.00 0.00 24 1001.3
20260508205109 72 221 2.0 8.0 0.00 0.00 0.00 24 1001.4
20260508204609 72 297 1.0 6.0 0.00 0.00 0.00 23 1001.5
20260508204326 71 306 2.0 8.0 0.00 0.00 0.00 23 1001.7
20260508203609 72 331 2.0 10.0 0.00 0.00 0.00 23 1001.8
20260508203109 71 302 3.0 10.0 0.00 0.00 0.00 23 1001.8
20260508202607 72 271 4.0 18.0 0.00 0.00 0.00 24 1001.8
20260508202107 72 303 5.0 18.0 0.00 0.00 0.00 24 1002.0
20260508201606 73 257 2.0 12.0 0.00 0.00 0.00 22 1002.0
20260508201104 72 184 2.0 15.0 0.00 0.00 0.00 24 1002.1
20260508200600 71 289 3.0 15.0 0.00 0.00 0.00 24 1002.2
20260508200100 72 256 2.0 11.0 0.00 0.00 0.00 23 1002.2
20260508195602 72 242 2.0 11.0 0.00 0.00 0.00 22 1002.3
20260508195100 72 11 1.0 4.0 0.00 0.00 0.00 23 1002.3
20260508194559 71 321 1.0 6.0 0.00 0.00 0.00 26 1002.5
20260508194100 71 317 1.0 6.0 0.00 0.00 0.00 23 1002.7
20260508193600 71 310 1.0 8.0 0.00 0.00 0.00 23 1002.7
20260508193058 71 277 1.0 8.0 0.00 0.00 0.00 23 1002.8
20260508192821 70 337 1.0 5.0 0.00 0.00 0.00 23 1002.8
20260508192058 70 347 1.0 7.0 0.00 0.00 0.00 23 1002.9
20260508191559 71 243 1.0 11.0 0.00 0.00 0.00 22 1003.0
20260508191541 72 310 1.0 11.0 0.00 0.00 0.00 23 1003.0
20260508190557 71 350 1.0 12.0 0.00 0.00 0.00 23 1003.0
20260508190057 70 305 3.0 12.0 0.00 0.00 0.00 24 1003.0
20260508185553 71 262 3.0 12.0 0.00 0.00 0.00 23 1003.0
20260508185050 71 169 3.0 12.0 0.00 0.00 0.00 21 1003.1
20260508184550 71 265 3.0 12.0 0.00 0.00 0.00 23 1003.0
20260508184051 71 217 2.0 12.0 0.00 0.00 0.00 23 1003.2
20260508183550 71 273 2.0 11.0 0.00 0.00 0.00 26 1003.2
20260508183048 69 292 2.0 11.0 0.00 0.00 0.00 23 1003.4